Flag for U.S.A. Weather past 2 weeks in Grand Rapids, Michigan, U.S.A.

Now
56 °F

Passing clouds.


Feels Like: 53 °F
Forecast: 45 / 59 °F
Wind: 12 mph from South

Location: Kent County International Airport

Current Time: Apr 1, 2015 at 11:24:24 PM

Latest Report: Apr 1, 2015 at 10:53 PM


Visibility: 10 mi

Pressure: 29.92 "Hg

Humidity: 49%

Dew point: 37 °F

Location of Grand RapidsLocation

Historic Weather in Grand Rapids — Graph

°F

Grand Rapids temperature yesterday

Maximum temperature yesterday: 51 °F (at 3:53 PM)
Minimum temperature yesterday: 36 °F (at 7:53 AM)
Average temperature yesterday: 42 °F

Past Weeks' High & Low Weather Summary

 TemperatureHumidityPressure
High65 °F (Apr 1, 4:53 PM)96% (Mar 25, 9:53 AM)30.39 "Hg (Mar 25, 9:53 AM)
Low13 °F (Mar 28, 4:53 AM)25% (Mar 24, 4:53 PM)29.72 "Hg (Mar 31, 4:53 AM)
Average35 °F58%30.12 "Hg
* Reported Mar 17 9:53 PM — Apr 1 9:53 PM, Grand Rapids, Weather by CustomWeather, © 2015

Note: Actual official high and low records may vary slightly from our data, if they occured in-between our weather recording intervals... More about our weather records

Advertising

Grand Rapids weather history for previous 24 hours

 ConditionsComfort  
Time TempWeatherWind HumidityBarometerVisibility
9:53 PM
Wed, Apr 1
55 °FPassing clouds.10 mph51%29.93 "Hg10 mi
8:53 PM57 °FPartly sunny.9 mph44%29.93 "Hg10 mi
7:53 PM60 °FPartly sunny.9 mph41%29.93 "Hg10 mi
6:53 PM65 °FScattered clouds.13 mph33%29.94 "Hg10 mi
5:53 PM64 °FScattered clouds.9 mph33%29.96 "Hg10 mi
4:53 PM65 °FPassing clouds.9 mph33%29.98 "Hg10 mi
3:53 PM63 °FPassing clouds.8 mph35%30.02 "Hg10 mi
2:53 PM63 °FPassing clouds.9 mph38%30.05 "Hg10 mi
1:53 PM59 °FScattered clouds.8 mph39%30.08 "Hg10 mi
12:53 PM55 °FScattered clouds.3 mph49%30.10 "Hg10 mi
11:53 AM50 °FScattered clouds.No wind54%30.11 "Hg10 mi
10:53 AM47 °FPassing clouds.3 mph61%30.11 "Hg10 mi
9:53 AM41 °FSunny.No wind65%30.10 "Hg10 mi
8:53 AM33 °FSunny.5 mph82%30.07 "Hg10 mi
7:53 AM28 °FClear.6 mph85%30.06 "Hg10 mi
6:53 AM28 °FClear.No wind85%30.03 "Hg10 mi
5:53 AM30 °FClear.No wind79%30.01 "Hg10 mi
4:53 AM30 °FClear.5 mph79%29.99 "Hg10 mi
3:53 AM30 °FClear.3 mph79%30.00 "Hg10 mi
2:53 AM33 °FClear.3 mph72%30.00 "Hg10 mi
1:53 AM35 °FClear.3 mph70%29.99 "Hg10 mi
12:53 AM35 °FClear.5 mph70%29.98 "Hg10 mi
11:53 PM
Tue, Mar 31
37 °FPassing clouds.7 mph65%29.96 "Hg10 mi
Weather by CustomWeather, © 2015

See weather overviewHow to use our weather pages